User: anonymous   Login
Location: ?
(35.4996°N, 139.3166°E)
Time: 13:06:28
(UTC+00:00)
Language:

BREEZE-M DEB (TANK) - Orbit

View from above orbital plane
View from above orbital plane
View from above satellite
View from above satellite

Ground track
Ground track

The orbit data is extracted from the following two-line orbital elements,

1 29271U 06032C   24176.14967001  .00003693  00000-0  65676-3 0  9994
2 29271  49.4580 152.5198 5227351 140.3832 272.8937  5.24510931327684
Epoch (UTC): 24 June 2024 03:35:31
Eccentricity: 0.5227351
inclination: 49.4580°
perigee height: 300 km
apogee height: 14929 km
right ascension of ascending node: 152.5198°
argument of perigee: 140.3832°
revolutions per day: 5.24510931
mean anomaly at epoch: 272.8937°
orbit number at epoch: 32768

The dashed part of the orbit path shows where the satellite is in the earth's shadow,  

DLR